Flag Weather past 2 weeks in Swansea, Wales, United Kingdom

Now
48 °F

Cool.


Feels Like: 41 °F
Forecast: N/A
Wind: 16 mph from East

Location: Mumbles

Current Time: Nov 27, 2014 at 3:04:00 PM

Latest Report: Nov 27, 2014 at 2:00 PM


Visibility: N/A

Pressure: 29.54 "Hg

Humidity: 83%

Dew point: 43 °F

Location of SwanseaLocation

Historic Weather in Swansea — Graph

°F

Swansea temperature yesterday

Maximum temperature yesterday: 48 °F (at 1:00 PM)
Minimum temperature yesterday: 44 °F (at 3:00 AM)
Average temperature yesterday: 45 °F

Past Weeks' High & Low Weather Summary

 TemperatureHumidityPressure
High58 °F (Nov 22, 11:00 AM)97% (Nov 22, 12:00 AM)30.37 "Hg (Nov 22, 12:00 AM)
Low39 °F (Nov 24, 6:00 AM)63% (Nov 24, 3:00 PM)29.21 "Hg (Nov 13, 1:00 PM)
Average49 °F84%29.83 "Hg
* Reported Nov 12 1:00 PM — Nov 27 1:00 PM, Swansea, Weather by CustomWeather, © 2014

Note: Actual official high and low records may vary slightly from our data, if they occured in-between our weather recording intervals... More about our weather records

Advertising

Swansea weather history for previous 24 hours

 ConditionsComfort  
Time TempWeatherWind HumidityBarometerVisibility
1:00 PM
Nov 27
47 °FCool.22 mph90%29.57 "HgN/A
12:00 PM47 °FCool.20 mph82%29.58 "HgN/A
11:00 AM47 °FCool.14 mph90%29.59 "HgN/A
10:00 AM46 °FCool.12 mph87%29.60 "HgN/A
9:00 AM46 °FCool.10 mph90%29.61 "HgN/A
8:00 AM44 °FQuite cool.9 mph93%29.62 "HgN/A
7:00 AM44 °FQuite cool.9 mph94%29.63 "HgN/A
6:00 AM43 °FQuite cool.6 mph95%29.66 "HgN/A
5:00 AM44 °FQuite cool.6 mph94%29.67 "HgN/A
4:00 AM43 °FQuite cool.7 mph93%29.69 "HgN/A
3:00 AM43 °FQuite cool.3 mph93%29.70 "HgN/A
2:00 AM44 °FQuite cool.2 mph92%29.72 "HgN/A
1:00 AM43 °FQuite cool.5 mph91%29.74 "HgN/A
12:00 AM43 °FQuite cool.5 mph93%29.77 "HgN/A
11:00 PM
Nov 26
44 °FQuite cool.6 mph93%29.78 "HgN/A
10:00 PM44 °FQuite cool.8 mph92%29.80 "HgN/A
9:00 PM44 °FQuite cool.9 mph91%29.81 "HgN/A
8:00 PM45 °FQuite cool.8 mph89%29.82 "HgN/A
7:00 PM45 °FCool.8 mph87%29.83 "HgN/A
6:00 PM46 °FCool.7 mph85%29.85 "HgN/A
5:00 PM47 °FCool.8 mph84%29.85 "HgN/A
4:00 PM47 °FCool.7 mph84%29.85 "HgN/A
3:00 PM47 °FCool.6 mph84%29.86 "HgN/A
Weather by CustomWeather, © 2014

See weather overviewHow to use our weather pages